Weather History for Three Rivers, MI

Change the Weather History Date:

Saturday, December 12, 2009

  Actual Average Record
Temperature  
Mean Temperature 22 °F -  
Max Temperature 35 °F 38 °F 62 °F (1949)
Min Temperature 10 °F 22 °F -13 °F (1962)
Degree Days  
Heating Degree Days 42    
Moisture  
Dew Point 15 °F    
Average Humidity 69    
Maximum Humidity 100    
Minimum Humidity 44    
Precipitation  
Precipitation 0.00 in - - ()
Sea Level Pressure  
Sea Level Pressure 30.27 in    
Wind  
Wind Speed 6 mph (South)    
Max Wind Speed 22 mph    
Max Gust Speed 31 mph    
Visibility 10 miles    
Events Snow    
Averages and records for this station are not official NWS values.
T = Trace of Precipitation, MM = Missing Value Source: NWS Daily Summary

Daily Weather History Graph

Daily Weather History Graph

Search for Another Location

Airport:

Trip Planner

Search our weather history database for the weather conditions in past years. The results will help you decide how hot, cold, wet, or windy it might be!

Date:

Astronomy

Dec. 12, 2009 Rise Set
Actual Time 8:01 AM EST 5:11 PM EST
Civil Twilight 7:29 AM EST 5:42 PM EST
Nautical Twilight 6:54 AM EST 6:18 PM EST
Astronomical Twilight 6:20 AM EST 6:51 PM EST
Moon 4:17 AM EST (12/12) 2:19 PM EST (12/12)
Length of Visible Light 10h 13m
Length of Day
9h 10m
Waning Crescent, 14% of the Moon is Illuminated
Dec 12
Waning Crescent
Dec 16
New
Dec 24
First Quarter
Dec 31
Full
Jan 7
Last Quarter

Hourly Weather History & Observations

Time (EST) Temp. Windchill Dew Point Humidity Pressure Visibility Wind Dir Wind Speed Gust Speed Precip Events Conditions
12:16 AM 12.2 °F 4.3 °F 12.2 °F 100% 30.33 in 10.0 mi South 4.6 mph - N/A   Clear
12:36 AM 14.0 °F 5.1 °F 12.2 °F 93% 30.32 in 10.0 mi South 5.8 mph - N/A   Clear
12:55 AM 14.0 °F - 12.2 °F 93% 30.33 in 10.0 mi Calm Calm - N/A   Clear
1:16 AM 12.2 °F - 10.4 °F 92% 30.33 in 10.0 mi Calm Calm - N/A   Clear
1:36 AM 10.4 °F - 8.6 °F 92% 30.33 in 7.0 mi Calm Calm - N/A   Clear
1:55 AM 10.4 °F - 8.6 °F 92% 30.33 in 7.0 mi Calm Calm - N/A   Clear
2:16 AM 12.2 °F - 10.4 °F 92% 30.33 in 7.0 mi Calm Calm - N/A   Clear
2:36 AM 10.4 °F - 10.4 °F 100% 30.33 in 7.0 mi Calm Calm - N/A   Clear
2:55 AM 10.4 °F - 8.6 °F 92% 30.34 in 5.0 mi Calm Calm - N/A   Clear
3:16 AM 12.2 °F 6.1 °F 10.4 °F 92% 30.33 in 7.0 mi South 3.5 mph - N/A   Clear
3:36 AM 10.4 °F 4.0 °F 8.6 °F 92% 30.34 in 7.0 mi South 3.5 mph - N/A   Clear
3:55 AM 14.0 °F 6.5 °F 12.2 °F 93% 30.34 in 10.0 mi South 4.6 mph - N/A   Clear
4:16 AM 14.0 °F 6.5 °F 12.2 °F 93% 30.34 in 10.0 mi South 4.6 mph - N/A   Clear
4:36 AM 14.0 °F 5.1 °F 12.2 °F 93% 30.33 in 10.0 mi South 5.8 mph - N/A   Clear
4:55 AM 14.0 °F 6.5 °F 12.2 °F 93% 30.33 in 10.0 mi South 4.6 mph - N/A   Clear
5:16 AM 14.0 °F 5.1 °F 10.4 °F 86% 30.33 in 10.0 mi South 5.8 mph - N/A   Clear
5:36 AM 14.0 °F 5.1 °F 10.4 °F 86% 30.33 in 10.0 mi South 5.8 mph - N/A   Clear
5:55 AM 17.6 °F 9.3 °F 12.2 °F 79% 30.33 in 10.0 mi South 5.8 mph - N/A   Clear
6:16 AM 17.6 °F 9.3 °F 12.2 °F 79% 30.33 in 10.0 mi South 5.8 mph - N/A   Clear
6:55 AM 17.6 °F 7.3 °F 12.2 °F 79% 30.33 in 10.0 mi South 8.1 mph - N/A   Clear
7:16 AM 19.4 °F 9.5 °F 12.2 °F 74% 30.33 in 10.0 mi South 8.1 mph - N/A   Clear
7:36 AM 19.4 °F 10.4 °F 12.2 °F 74% 30.33 in 10.0 mi South 6.9 mph - N/A   Clear
7:55 AM 17.6 °F 8.2 °F 12.2 °F 79% 30.34 in 10.0 mi South 6.9 mph - N/A   Clear
8:16 AM 19.4 °F 11.5 °F 12.2 °F 74% 30.34 in 10.0 mi South 5.8 mph - N/A   Clear
8:36 AM 19.4 °F 10.4 °F 12.2 °F 74% 30.34 in 10.0 mi South 6.9 mph - N/A   Clear
8:55 AM 19.4 °F 9.5 °F 12.2 °F 74% 30.34 in 10.0 mi South 8.1 mph - N/A   Clear
9:16 AM 21.2 °F 11.7 °F 14.0 °F 74% 30.34 in 10.0 mi South 8.1 mph - N/A   Clear
9:36 AM 23.0 °F 13.1 °F 14.0 °F 68% 30.35 in 10.0 mi South 9.2 mph - N/A   Clear
9:55 AM 23.0 °F 12.4 °F 14.0 °F 68% 30.34 in 10.0 mi South 10.4 mph - N/A   Clear
10:16 AM 26.6 °F 17.5 °F 14.0 °F 59% 30.34 in 10.0 mi South 9.2 mph - N/A   Clear
10:36 AM 26.6 °F 17.5 °F 15.8 °F 64% 30.34 in 10.0 mi South 9.2 mph - N/A   Clear
10:55 AM 28.4 °F 19.7 °F 15.8 °F 59% 30.33 in 10.0 mi South 9.2 mph - N/A   Clear
11:16 AM 28.4 °F 18.0 °F 17.6 °F 64% 30.33 in 10.0 mi South 12.7 mph - N/A   Clear
11:36 AM 30.2 °F 21.9 °F 17.6 °F 60% 30.32 in 10.0 mi South 9.2 mph - N/A   Clear
11:55 AM 32.0 °F 23.6 °F 17.6 °F 55% 30.30 in 10.0 mi South 10.4 mph - N/A   Clear
12:16 PM 32.0 °F 23.6 °F 17.6 °F 55% 30.29 in 10.0 mi South 10.4 mph - N/A   Clear
12:36 PM 32.0 °F 23.6 °F 17.6 °F 55% 30.28 in 10.0 mi South 10.4 mph - N/A   Clear
12:55 PM 32.0 °F 22.5 °F 17.6 °F 55% 30.27 in 10.0 mi South 12.7 mph - N/A   Clear
1:16 PM 33.8 °F 25.3 °F 17.6 °F 52% 30.26 in 10.0 mi South 11.5 mph - N/A   Clear
1:36 PM 33.8 °F 24.8 °F 15.8 °F 48% 30.25 in 10.0 mi South 12.7 mph - N/A   Clear
1:55 PM 33.8 °F 25.8 °F 17.6 °F 52% 30.24 in 10.0 mi South 10.4 mph - N/A   Clear
2:16 PM 33.8 °F 24.8 °F 17.6 °F 52% 30.24 in 10.0 mi South 12.7 mph 17.3 mph N/A   Clear
2:36 PM 33.8 °F 27.0 °F 15.8 °F 48% 30.23 in 10.0 mi South 8.1 mph - N/A   Clear
2:55 PM 33.8 °F 25.3 °F 15.8 °F 48% 30.23 in 10.0 mi South 11.5 mph - N/A   Clear
3:16 PM 33.8 °F 26.4 °F 15.8 °F 48% 30.22 in 10.0 mi SSE 9.2 mph - N/A   Clear
3:36 PM 33.8 °F 27.7 °F 17.6 °F 52% 30.21 in 10.0 mi SSE 6.9 mph - N/A   Clear
3:55 PM 33.8 °F 25.3 °F 17.6 °F 52% 30.20 in 10.0 mi SSE 11.5 mph 16.1 mph N/A   Clear
4:16 PM 35.6 °F 28.0 °F 15.8 °F 44% 30.19 in 10.0 mi South 10.4 mph - N/A   Scattered Clouds
4:36 PM 33.8 °F 27.7 °F 17.6 °F 52% 30.19 in 10.0 mi SSE 6.9 mph - N/A   Scattered Clouds
4:55 PM 33.8 °F 27.0 °F 17.6 °F 52% 30.19 in 10.0 mi SSE 8.1 mph - N/A   Scattered Clouds
5:17 PM 33.8 °F 27.7 °F 17.6 °F 52% 30.19 in 10.0 mi SSE 6.9 mph - N/A   Mostly Cloudy
5:36 PM 33.8 °F 27.0 °F 17.6 °F 52% 30.19 in 10.0 mi SSE 8.1 mph - N/A   Overcast
5:55 PM 33.8 °F 25.8 °F 17.6 °F 52% 30.19 in 10.0 mi South 10.4 mph - N/A   Overcast
6:16 PM 33.8 °F 25.8 °F 17.6 °F 52% 30.19 in 10.0 mi SSE 10.4 mph - N/A   Overcast
6:36 PM 33.8 °F 27.0 °F 17.6 °F 52% 30.18 in 10.0 mi SSE 8.1 mph - N/A   Overcast
6:55 PM 33.8 °F 25.8 °F 19.4 °F 56% 30.18 in 10.0 mi South 10.4 mph - N/A   Overcast
7:16 PM 33.8 °F 25.8 °F 19.4 °F 56% 30.18 in 10.0 mi South 10.4 mph - N/A   Overcast
7:36 PM 33.8 °F 23.5 °F 19.4 °F 56% 30.16 in 10.0 mi South 16.1 mph - N/A   Overcast
7:55 PM 33.8 °F 21.9 °F 23.0 °F 65% 30.17 in 5.0 mi South 21.9 mph 31.1 mph N/A Snow Light Snow
8:16 PM 33.8 °F 24.8 °F 24.8 °F 70% 30.15 in 10.0 mi South 12.7 mph 20.7 mph N/A Snow Light Snow
8:36 PM 33.8 °F 24.8 °F 21.2 °F 60% 30.13 in 10.0 mi South 12.7 mph 21.9 mph N/A   Overcast
9:16 PM 33.8 °F 23.5 °F 24.8 °F 70% 30.11 in 5.0 mi South 16.1 mph 21.9 mph N/A Snow Light Snow
9:36 PM 33.8 °F 23.2 °F 26.6 °F 75% 30.10 in 10.0 mi South 17.3 mph 20.7 mph N/A Snow Light Snow
9:55 PM 32.0 °F 23.6 °F 28.4 °F 87% 30.08 in 10.0 mi SSE 10.4 mph 18.4 mph N/A Snow Light Snow
10:17 PM 32.0 °F 24.2 °F 28.4 °F 87% 30.07 in 10.0 mi SSE 9.2 mph - N/A   Overcast
10:36 PM 32.0 °F 23.6 °F 28.4 °F 87% 30.06 in 10.0 mi SSE 10.4 mph - N/A   Overcast
10:55 PM 32.0 °F 24.2 °F 28.4 °F 87% 30.05 in 7.0 mi SSE 9.2 mph - N/A   Overcast
11:16 PM 32.0 °F 22.5 °F 28.4 °F 87% 30.03 in 7.0 mi SSE 12.7 mph 17.3 mph N/A   Overcast
11:36 PM 33.8 °F 25.3 °F 28.4 °F 81% 30.02 in 10.0 mi SSE 11.5 mph 17.3 mph N/A   Overcast
11:55 PM 33.8 °F 25.3 °F 26.6 °F 75% 30.00 in 10.0 mi SSE 11.5 mph - N/A   Overcast